This is the latest recevied weather packets stored in our database for station/object N3WMC. If no packets are shown the sender has not sent any weather packets the latest 10 day(s).
| Time | Temp. | Humidity | Pressure | Rain* | Wind** | Luminosity | Snow |
|---|---|---|---|---|---|---|---|
| 1777896779 | 12.78° C | 54% | 1012 hPa | 0 mm | - | 167 W/m² | - |
| 1777896477 | 12.22° C | 56% | 1011.8 hPa | 0 mm | - | 167 W/m² | - |
| 1777896174 | 11.67° C | 56% | 1011.8 hPa | 0 mm | - | 153 W/m² | - |
| 1777895872 | 11.67° C | 58% | 1012 hPa | 0 mm | - | 72 W/m² | - |
| 1777895569 | 11.67° C | 58% | 1012 hPa | 0 mm | - | 46 W/m² | - |
| 1777895267 | 11.67° C | 58% | 1012 hPa | 0 mm | - | 91 W/m² | - |
| 1777894964 | 11.11° C | 58% | 1012 hPa | 0 mm | - | 73 W/m² | - |
| 1777894661 | 10.56° C | 59% | 1011.8 hPa | 0 mm | - | 46 W/m² | - |
| 1777894358 | 10.56° C | 59% | 1012 hPa | 0 mm | - | 39 W/m² | - |
| 1777894055 | 10.56° C | 59% | 1012 hPa | 0 mm | - | 35 W/m² | - |
| 1777893752 | 10° C | 60% | 1011.9 hPa | 0 mm | - | 33 W/m² | - |
| 1777893449 | 10° C | 61% | 1012 hPa | 0 mm | - | 31 W/m² | - |
| 1777893145 | 10° C | 61% | 1011.8 hPa | 0 mm | - | 29 W/m² | - |
| 1777892842 | 10° C | 60% | 1012 hPa | 0 mm | - | 27 W/m² | - |
| 1777892538 | 10° C | 61% | 1012 hPa | 0 mm | - | 27 W/m² | - |
| 1777892233 | 10° C | 61% | 1011.8 hPa | 0 mm | - | 21 W/m² | - |
| 1777891930 | 10° C | 61% | 1012.1 hPa | 0 mm | - | 15 W/m² | - |
| 1777891628 | 10° C | 61% | 1011.9 hPa | 0 mm | - | 10 W/m² | - |
| 1777891324 | 10° C | 61% | 1012 hPa | 0 mm | - | 6 W/m² | - |
| 1777891019 | 10° C | 61% | 1012.1 hPa | 0 mm | - | 5 W/m² | - |
| 1777890713 | 10° C | 60% | 1012.1 hPa | 0 mm | - | 4 W/m² | - |
| 1777890409 | 10° C | 60% | 1012 hPa | 0 mm | - | 3 W/m² | - |
| 1777890106 | 10° C | 60% | 1012 hPa | 0 mm | - | 2 W/m² | - |
| 1777889803 | 10° C | 60% | 1011.9 hPa | 0 mm | - | 2 W/m² | - |
| 1777889500 | 10° C | 60% | 1012.2 hPa | 0 mm | - | 1 W/m² | - |
* Rain latest hour (hover to see other rain measurements)
** Current wind speed in m/s (hover to see current wind gust speed)